This is the latest recevied weather packets stored in our database for station/object DG6YGE-6. If no packets are shown the sender has not sent any weather packets the latest 10 day(s).
| Time | Temp. | Humidity | Pressure | Rain* | Wind** | Luminosity | Snow |
|---|---|---|---|---|---|---|---|
| 1777397951 | 15° C | 38% | 1022.4 hPa | 0 mm | - | 102 W/m² | - |
| 1777397351 | 15° C | 38% | 1022.3 hPa | 0 mm | - | 125 W/m² | - |
| 1777396751 | 15.56° C | 37% | 1022.2 hPa | 0 mm | - | 145 W/m² | - |
| 1777396151 | 15.56° C | 37% | 1022.2 hPa | 0 mm | - | 134 W/m² | - |
| 1777395552 | 15.56° C | 37% | 1021.9 hPa | 0 mm | - | 170 W/m² | - |
| 1777394951 | 15.56° C | 37% | 1022.2 hPa | 0 mm | - | 192 W/m² | - |
| 1777394351 | 15.56° C | 36% | 1022.2 hPa | 0 mm | - | 207 W/m² | - |
| 1777393751 | 15.56° C | 36% | 1022.1 hPa | 0 mm | - | 195 W/m² | - |
| 1777393151 | 15.56° C | 35% | 1022.1 hPa | 0 mm | - | 216 W/m² | - |
| 1777392551 | 15.56° C | 36% | 1022.3 hPa | 0 mm | - | 279 W/m² | - |
| 1777391951 | 16.11° C | 36% | 1022.3 hPa | 0 mm | - | 280 W/m² | - |
| 1777391351 | 15.56° C | 36% | 1022.1 hPa | 0 mm | - | 313 W/m² | - |
| 1777390751 | 16.11° C | 36% | 1022 hPa | 0 mm | - | 378 W/m² | - |
| 1777390151 | 16.11° C | 36% | 1022.2 hPa | 0 mm | - | 420 W/m² | - |
| 1777389551 | 16.11° C | 36% | 1022.1 hPa | 0 mm | - | 450 W/m² | - |
| 1777388951 | 15.56° C | 37% | 1022.1 hPa | 0 mm | - | 472 W/m² | - |
| 1777388351 | 15.56° C | 39% | 1022.2 hPa | 0 mm | - | 492 W/m² | - |
| 1777387751 | 15.56° C | 41% | 1022.3 hPa | 0 mm | - | 512 W/m² | - |
| 1777387151 | 15.56° C | 40% | 1022.4 hPa | 0 mm | - | 534 W/m² | - |
| 1777386551 | 15.56° C | 40% | 1022.3 hPa | 0 mm | - | 553 W/m² | - |
| 1777385951 | 15.56° C | 41% | 1022.6 hPa | 0 mm | - | 570 W/m² | - |
| 1777385352 | 15.56° C | 39% | 1022.3 hPa | 0 mm | - | 589 W/m² | - |
| 1777384751 | 15.56° C | 39% | 1022.6 hPa | 0 mm | - | 606 W/m² | - |
| 1777384151 | 15.56° C | 40% | 1022.7 hPa | 0 mm | - | 622 W/m² | - |
| 1777383551 | 15.56° C | 39% | 1022.4 hPa | 0 mm | - | 633 W/m² | - |
* Rain latest hour (hover to see other rain measurements)
** Current wind speed in m/s (hover to see current wind gust speed)